Карточка аэропорта UUOB

Внимание!
Информация на этой странице в стадии наполнения.
Если вы не увидели какой-то информации, или заметили неточность - пожалуйста сообщите нам!
Спасибо!
Команда RU-STAFF
Название аэропортаБелгород
Название аэропорта (англ.)Belgorod
Превышение735 ft. (224 m.)
Координаты50°38.634', 36°35.4'
Высота перехода500 m
Эшелон переходаQFE>=740mm:FL040; QFE<740=>713:FL050; QFE<713:FL060
Коды ответчика2150-2177
Зона ОрВДМосква РПИ (UUWV)
Данные METARUUOB 250330Z 35002MPS CAVOK 16/11 Q1010 R11/010070 NOSIG
Проноз погоды (TAF)UUOB 250200Z 2503/2512 36003MPS 9999 SCT030
NOTAMshow/hide NOTAM
AWOS   TABLE

Информация о ВПП

ВПП Длина ВПП (м.) Покрытие Курс ВПП Частота ILS
112500Асфальтобетон109 
292500Асфальтобетон289110.5

Диспетчерские позиции

Позывной Наименование органа УВД Частота
UUOB_APPБелгород-Подход133.000
UUOB_TWRБелгород-Вышка118.200



Спутниковое изображение